This is the latest recevied weather packets stored in our database for station/object DH2PG-6. If no packets are shown the sender has not sent any weather packets the latest 10 day(s).
| Time | Temp. | Humidity | Pressure | Rain* | Wind** | Luminosity | Snow |
|---|---|---|---|---|---|---|---|
| 1778252077 | 18.89° C | 50% | 1013.1 hPa | 0 mm | - | - | - |
| 1778251477 | 18.89° C | 49% | 1013.3 hPa | 0 mm | - | - | - |
| 1778251176 | 18.89° C | 50% | 1013.3 hPa | 0 mm | - | - | - |
| 1778250876 | 18.89° C | 49% | 1013.4 hPa | 0 mm | - | - | - |
| 1778250576 | 18.89° C | 52% | 1013.4 hPa | 0 mm | - | - | - |
| 1778250275 | 18.33° C | 51% | 1013.3 hPa | 0 mm | - | - | - |
| 1778249975 | 17.78° C | 52% | 1013.4 hPa | 0 mm | - | - | - |
| 1778249675 | 17.78° C | 52% | 1013.4 hPa | 0 mm | - | - | - |
| 1778249375 | 17.78° C | 52% | 1013.4 hPa | 0 mm | - | - | - |
| 1778249074 | 17.78° C | 50% | 1013.4 hPa | 0 mm | - | - | - |
| 1778248474 | 18.33° C | 51% | 1013.2 hPa | 0 mm | - | - | - |
| 1778248174 | 18.89° C | 51% | 1013.3 hPa | 0 mm | - | - | - |
| 1778247873 | 18.33° C | 51% | 1013.3 hPa | 0 mm | - | - | - |
| 1778247573 | 18.33° C | 51% | 1013.3 hPa | 0 mm | - | - | - |
| 1778246972 | 18.33° C | 51% | 1013.4 hPa | 0 mm | - | - | - |
| 1778245171 | 18.89° C | 51% | 1013.5 hPa | 0 mm | - | - | - |
| 1778244870 | 18.33° C | 52% | 1013.5 hPa | 0 mm | - | - | - |
| 1778244570 | 18.33° C | 53% | 1013.4 hPa | 0 mm | - | - | - |
| 1778244270 | 17.78° C | 54% | 1013.5 hPa | 0 mm | - | - | - |
| 1778243970 | 17.78° C | 54% | 1013.5 hPa | 0 mm | - | - | - |
| 1778243369 | 17.78° C | 56% | 1013.5 hPa | 0 mm | - | - | - |
| 1778243069 | 17.22° C | 55% | 1013.4 hPa | 0 mm | - | - | - |
| 1778242468 | 16.67° C | 54% | 1013.6 hPa | 0 mm | - | - | - |
| 1778241867 | 16.11° C | 56% | 1013.5 hPa | 0 mm | - | - | - |
| 1778241567 | 16.11° C | 56% | 1013.7 hPa | 0 mm | - | - | - |
* Rain latest hour (hover to see other rain measurements)
** Current wind speed in m/s (hover to see current wind gust speed)